TIANZHOU-8

Last updated on Thu Nov 21 2024 00:02:07 GMT+0000 (Coordinated Universal Time)

1 61983U 24211A 24324.38988355 .00034385 00000+0 43484-3 0 9999 2 61983 41.4663 216.6873 0002970 330.2203 29.8466 15.58809588203374
UTC large
Height (km)
Speed (km/s)
/
Latitude / Longitude
Inclination (degrees)
Orbital Period (minutes)
Azimuth
Elevation
Range (km)
Doppler Factor

Next 0 passes for location: London (51.5072 / 0.1276)

Sorry there are no passes over London.